> 19, 20 y 21 de Febrero / San Nicolás (Buenos Aires)
Pos Auto Piloto Marca Vts. Tiempo Dif.
1 1 PABLO VUYOVICH FIESTA KINETIC 14 31:10.795
2 113 LUIS BESSONE TOYOTA ETIOS 14 31:11.999 1,204
3 30 FRANCO ROSSOMANNO RENAULT CLIO 14 31:13.236 2,441
4 12 SANTIAGO ROBLEDO TOYOTA ETIOS 14 31:14.112 3,317
5 19 JUAN BENEDETTI TOYOTA ETIOS 14 31:15.834 5,039
6 8 JUAN MANUEL DAMIANI TOYOTA ETIOS 14 31:16.383 5,588
7 11 ALFREDO LESTARD RENAULT CLIO 14 31:16.400 5,605
8 88 JORGE POSSIEL NISSAN MARCH 14 31:16.983 6,188
9 31 JONATHAN BALDINELLI TOYOTA ETIOS 14 31:17.503 6,708
10 22 JUAN PABLO URRUTIA FIESTA KINETIC 14 31:20.203 9,408
11 116 ANDRES D'AMICO RENAULT CLIO 14 31:21.416 10,621
12 77 ELIAS BATTINI TOYOTA ETIOS 14 31:22.691 11,896
13 16 NICOLAS BULICH TOYOTA ETIOS 14 31:22.700 11,905
14 93 MARTIN BADARACO NISSAN MARCH 14 31:22.890 12,095
15 87 MARCELO MARCHESSE TOYOTA ETIOS 14 31:23.433 12,638
16 9 TOMAS SNIECHOWSKI FIESTA KINETIC 14 31:23.684 12,889
17 35 MARTIN FIERROS TOYOTA ETIOS 14 31:24.904 14,109
18 4 LUIGI MELLI TOYOTA ETIOS 14 31:25.218 14,423
19 25 LUCAS ROSSOMANNO FIESTA KINETIC 14 31:25.529 14,734
20 68 CRISTIAN GARBIGLIA FIESTA KINETIC 14 31:28.008 17,213
21 78 RAMIRO ALCAINE RENAULT CLIO 14 31:29.833 19,038
22 91 EMILIANO URQUIZA TOYOTA ETIOS 14 31:30.360 19,565
23 58 MAXIMO DONZINO RENAULT CLIO 14 31:31.936 21,141
24 118 WALTER BESSONE TOYOTA ETIOS 14 31:32.258 21,463
25 114 ESTEBAN CASAIS RENAULT CLIO 14 31:32.862 22,067
26 20 RUBEN LOIACONO TOYOTA ETIOS 14 31:33.090 22,295
27 95 PABLO MELILLO TOYOTA ETIOS 14 31:34.146 23,351
28 75 JORGE LOIZATE VW TREND 14 31:35.231 24,436
29 44 JUAN GARAVAGLIA CHEVROLET ONIX 14 31:40.088 29,293
30 111 YAIR ETCHEVESTE RENAULT CLIO 14 31:40.995 30,200
31 99 LUCIANO VIANA TOYOTA ETIOS 14 31:53.558 42,763
32 38 LUCAS BARBALARGA RENAULT CLIO 13 29:38.912 1 Vuelta
33 40 MARCELO GARCIA RENAULT CLIO 13 29:43.928 1 Vuelta
34 37 PABLO COLLAZO FIESTA KINETIC 13 29:50.161 1 Vuelta
35 27 CRISTOBAL RIESTRA FIESTA KIENTIC 12 27:56.887 2 Vueltas
36 70 MATIAS CRAVERO TOYOTA ETIOS 12 27:57.993 2 Vueltas
37 57 PABLO M. GRIPPO TOYOTA ETIOS 12 28:03.194 2 Vueltas
38 3 FRANCISCO COLTRINARI TOYOTA EIOS 11 26:08.193 3 Vueltas
NO CLASIFICADOS
52 DANIEL LESTARD TOYOTA ETIOS 7 16:07.248 7 Vueltas
69 AGUSTIN HERRERA RENAULT CLIO 6 14:09.978 8 Vueltas
41 JUAN JOSE CONDE FIESTA KINETIC 2 3:41.194 12 Vueltas
17 LUCAS PETRACCHINI RENAULT CLIO 1 1:47.941 13 Vueltas
15 MARTIN BLASIG TOYOTA ETIOS 1 1:53.261 13 Vueltas
33 PABLO MALIZIA TOYOTA ETIOS 1 2:17.214 13 Vueltas

Márgen de victoria: 1.204 Velocidad media: 107,762 Mejor t° de vuelta: 1:41.746 Mejor Vel.:141,529 Mejor vuelta para: 1 – PABLO VUYOVICH

NO LARGO AUTO Nro. 71.
AUTO Nro. 95 PENALIZACION BOX POR NO RESPETAR CAJON DE LARGADA.
AUTO Nro. 18 EXCLUIDO DEL EVENTO POR TECNICA ARTICULO 3.3.1 (CARBURADOR)
AUTO Nro. 16 RECARGADO CON 3 PUESTOS POR MANIOBRA PELIGROSA AL AUTO Nro. 69.
AUTO 9 APERCIBIDO POR MANIOBRA PELIGROSA AL AUTO 17.
AUTO 36 EXCLUIDO POR MANIOBRA PELIGROSA AL AUTO 3.

Pos Auto Piloto Marca Vts. Tiempo Dif.
1 8 JUAN MANUEL DAMIANI TOYOTA ETIOS 6 12:41.814
2 30 FRANCO ROSSOMANNO RENAULT CLIO 6 12:42.524 0.710
3 19 JUAN BENEDETTI TOYOTA ETIOS 6 12:42.929 1,115
4 22 JUAN PABLO URRUTIA FIESTA KINETIC 6 12:43.211 1,397
5 11 ALFREDO LESTARD RENAULT CLIO 6 12:43.298 1,484
6 87 MARCELO MARCHESSE TOYOTA ETIOS 6 12:43.763 1,949
7 9 TOMAS SNIECHOWSKI FIESTA KINETIC 6 12:44.038 2,224
8 116 ANDRES D'AMICO RENAULT CLIO 6 12:44.279 2,465
9 37 PABLO COLLAZO FIESTA KINETIC 6 12:44.928 3,114
10 33 PABLO MALIZIA TOYOTA ETIOS 6 12:45.885 4,071
11 77 ELIAS BATTINI TOYOTA ETIOS 6 12:46.325 4,511
12 16 NICOLAS BULICH TOYOTA ETIOS 6 12:47.322 5,508
13 35 MARTIN FIERROS TOYOTA ETIOS 6 12:48.032 6,218
14 99 LUCIANO VIANA TOYOTA ETIOS 6 12:48.673 6,859
15 111 YAIR ETCHEVESTE RENAULT CLIO 6 12:49.832 8,018
16 93 MARTIN BADARACO NISSAN MARCH 6 12:49.876 8,062
17 91 EMILIANO URQUIZA TOYOTA ETIOS 6 12:49.997 8,183
18 95 PABLO MELILLO TOYOTA ETIOS 6 12:53.227 11,413
19 58 MAXIMO DONZINO RENAULT CLIO 6 12:53.955 12,141
20 40 MARCELO GARCIA RENAULT CLIO 6 12:54.164 12,350
21 75 JORGE LOIZATE VW TREND 6 12:54.859 13,045
20 RUBEN LOIACONO TOYOTA ETIOS 1 1:48.863 5 Vueltas

Márgen de victoria: 0.710 Velocidad media: 113,414 Mejor t° de vuelta: 1:41.989
Mejor Vel.: 141,192 Mejor vuelta para: 30 – FRANCO ROSSOMANNO

AUTO 93 APERCIBIDO POR MANIOBRA PELIGROSA AL AUTO 70.
AUTO Nro. 70 EXCLUIDO PARCIALMENTE POR TECNICA (ART. 14 DEL REGLAMENTO CAMPEONATO)

Pos Auto Piloto Marca Vts. Tiempo
1 1 PABLO VUYOVICH FIESTA KINETIC 6 11:27.570
2 113 LUIS BESSONE TOYOTA ETIOS 6 11:30.367
3 12 SANTIAGO ROBLEDO TOYOTA ETIOS 6 11:30.838
4 17 LUCAS PETRACCHINI RENAULT CLIO 6 11:34.707
5 88 JORGE POSSIEL NISSAN MARCH 6 11:34.989
6 3 FRANCISCO COLTRINARI TOYOTA EIOS 6 11:35.305
7 31 JONATHAN BALDINELLI TOYOTA ETIOS 6 11:36.021
8 78 RAMIRO ALCAINE RENAULT CLIO 6 11:36.491
9 4 LUIGI MELLI TOYOTA ETIOS 6 11:36.862
10 69 AGUSTIN HERRERA RENAULT CLIO 6 11:36.864
11 25 LUCAS ROSSOMANNO FIESTA KINETIC 6 11:37.260
12 27 CRISTOBAL RIESTRA FIESTA KIENTIC 6 11:37.578
13 118 WALTER BESSONE TOYOTA ETIOS 6 11:38.060
14 36 EDUARDO MORENO TOYOTA ETIOS 6 11:38.216
15 114 ESTEBAN CASAIS RENAULT CLIO 6 11:38.476
16 15 MARTIN BLASIG TOYOTA ETIOS 6 11:38.738
17 38 LUCAS BARBALARGA RENAULT CLIO 6 11:39.137
18 71 YAMIL APUD TOYOTA ETIOS 6 11:39.736
19 68 CRISTIAN GARBIGLIA FIESTA KINETIC 6 11:40.146
20 41 JUAN JOSE CONDE FIESTA KINETIC 6 11:44.078
21 44 JUAN GARAVAGLIA CHEVROLET ONIX 6 11:51.284
52 DANIEL LESTARD TOYOTA ETIOS 4 8:16.531
57 PABLO M. GRIPPO TOYOTA ETIOS

Márgen de victoria: 0.423 Velocidad media: 125,737 Mejor t° de vuelta: 1:41.612 Mejor Vel.: 141,716 Mejor vuelta para: 18 – RENZO CERRETTI

AUTO Nro. 18 EXCLUIDO DEL EVENTO POR TECNICA ARTICULO 3.3.1 (CARBURADOR)
AUTO 69 RECARGADO CON PUESTOS POR MANIOBRA PELIGROSA AL AUTO 15.

Pos Auto Piloto Marca Tiempo Dif.
1 19 JUAN BENEDETTI TOYOTA ETIOS 1:40.545 0.544
2 1 PABLO VUYOVICH FIESTA KINETIC 1:40.687 0.686
3 8 JUAN MANUEL DAMIANI TOYOTA ETIOS 1:40.693 0.692
4 15 MARTIN BLASIG TOYOTA ETIOS 1:40.741 0.740
5 22 JUAN PABLO URRUTIA FIESTA KINETIC 1:40.851 0.850
6 113 LUIS BESSONE TOYOTA ETIOS 1:40.885 0.884
7 30 FRANCO ROSSOMANNO RENAULT CLIO 1:40.896 0.895
8 12 SANTIAGO ROBLEDO TOYOTA ETIOS 1:40.937 0.936
9 37 PABLO COLLAZO FIESTA KINETIC 1:40.939 0.938
10 3 FRANCISCO COLTRINARI TOYOTA EIOS 1:40.943 0.942
11 11 ALFREDO LESTARD RENAULT CLIO 1:41.011 1,010
12 118 WALTER BESSONE TOYOTA ETIOS 1:41.093 1,092
13 87 MARCELO MARCHESSE TOYOTA ETIOS 1:41.118 1,117
14 25 LUCAS ROSSOMANNO FIESTA KINETIC 1:41.140 1,139
15 70 MATIAS CRAVERO TOYOTA ETIOS 1:41.169 1,168
16 78 RAMIRO ALCAINE RENAULT CLIO 1:41.201 1,200
17 77 ELIAS BATTINI TOYOTA ETIOS 1:41.242 1,241
18 88 JORGE POSSIEL NISSAN MARCH 1:41.287 1,286
19 116 ANDRES D'AMICO RENAULT CLIO 1:41.307 1,306
20 17 LUCAS PETRACCHINI RENAULT CLIO 1:41.321 1,320
21 9 TOMAS SNIECHOWSKI FIESTA KINETIC 1:41.384 1,383
22 69 AGUSTIN HERRERA RENAULT CLIO 1:41.436 1,435
23 93 MARTIN BADARACO NISSAN MARCH 1:41.459 1,458
24 27 CRISTOBAL RIESTRA FIESTA KIENTIC 1:41.555 1,554
25 91 EMILIANO URQUIZA TOYOTA ETIOS 1:41.570 1,569
26 38 LUCAS BARBALARGA RENAULT CLIO 1:41.616 1,615
27 33 PABLO MALIZIA TOYOTA ETIOS 1:41.750 1,749
28 31 JONATHAN BALDINELLI TOYOTA ETIOS 1:41.770 1,769
29 40 MARCELO GARCIA RENAULT CLIO 1:42.064 2,063
30 4 LUIGI MELLI TOYOTA ETIOS 1:42.112 2,111
31 20 RUBEN LOIACONO TOYOTA ETIOS 1:42.168 2,167
32 71 YAMIL APUD TOYOTA ETIOS 1:42.171 2,170
33 35 MARTIN FIERROS TOYOTA ETIOS 1:42.381 2,380
34 36 EDUARDO MORENO TOYOTA ETIOS 1:42.415 2,414
35 75 JORGE LOIZATE VW TREND 1:42.439 2,438
36 57 PABLO M. GRIPPO TOYOTA ETIOS 1:42.606 2,605
37 95 PABLO MELILLO TOYOTA ETIOS 1:42.649 2,648
38 68 CRISTIAN GARBIGLIA FIESTA KINETIC 1:42.946 2,945
39 99 LUCIANO VIANA TOYOTA ETIOS 1:43.086 3,085
40 41 JUAN JOSE CONDE FIESTA KINETIC 1:43.169 3,168
41 58 MAXIMO DONZINO RENAULT CLIO 1:44.542 4,541
42 44 JUAN GARAVAGLIA CHEVROLET ONIX 1:44.662 4,661

AUTO Nro. 18 EXCLUIDO DEL EVENTO POR TECNICA ARTICULO 3.3.1 (CARBURADOR)
AUTOS 16, 52 Y 114 RETIRO DE TIEMPOS POR NO RESPETAR ART. 10.3 REGLAMENTO DE CAMPEONATO.
AUTO Nro. 1 RETIRO DE UNA VUELTA POR EXCEDER LIMITE DE PISTA.
SIN TIEMPO AUTO Nro. 111.

Pos Auto Piloto Marca Tiempo Dif.
1 9 TOMAS SNIECHOWSKI FIESTA KINETIC 1:40.325
2 1 PABLO VUYOVICH FIESTA KINETIC 1:40.584 0.259
3 25 LUCAS ROSSOMANNO FIESTA KINETIC 1:40.620 0.295
4 18 RENZO CERRETTI FIESTA KINETIC 1:40.657 0.332
5 30 FRANCO ROSSOMANNO RENAULT CLIO 1:40.677 0.352
6 15 MARTIN BLASIG TOYOTA ETIOS 1:40.683 0.358
7 69 AGUSTIN HERRERA RENAULT CLIO 1:40.751 0.426
8 4 LUIGI MELLI TOYOTA ETIOS 1:40.793 0.468
9 37 PABLO COLLAZO FIESTA KINETIC 1:40.804 0.479
10 22 JUAN PABLO URRUTIA FIESTA KINETIC 1:40.942 0.617
11 91 EMILIANO URQUIZA TOYOTA ETIOS 1:40.973 0.648
12 17 LUCAS PETRACCHINI RENAULT CLIO 1:41.014 0.689
13 93 MARTIN BADARACO NISSAN MARCH 1:41.068 0.743
14 19 JUAN BENEDETTI TOYOTA ETIOS 1:41.117 0.792
15 27 CRISTOBAL RIESTRA FIESTA KIENTIC 1:41.126 0.801
16 11 ALFREDO LESTARD RENAULT CLIO 1:41.185 0.860
17 38 LUCAS BARBALARGA RENAULT CLIO 1:41.207 0.882
18 12 SANTIAGO ROBLEDO TOYOTA ETIOS 1:41.209 0.884
19 8 JUAN MANUEL DAMIANI TOYOTA ETIOS 1:41.260 0.935
20 70 MATIAS CRAVERO TOYOTA ETIOS 1:41.312 0.987
21 87 MARCELO MARCHESSE TOYOTA ETIOS 1:41.330 1,005
22 40 MARCELO GARCIA RENAULT CLIO 1:41.360 1,035
23 113 LUIS BESSONE TOYOTA ETIOS 1:41.529 1,204
24 3 FRANCISCO COLTRINARI TOYOTA EIOS 1:41.710 1,385
25 118 WALTER BESSONE TOYOTA ETIOS 1:42.040 1,715
26 20 RUBEN LOIACONO TOYOTA ETIOS 1:42.210 1,885
27 35 MARTIN FIERROS TOYOTA ETIOS 1:42.359 2,034
28 36 EDUARDO MORENO TOYOTA ETIOS 1:42.460 2,135
29 71 YAMIL APUD TOYOTA ETIOS 1:42.514 2,189
30 95 PABLO MELILLO TOYOTA ETIOS 1:42.597 2,272
31 75 JORGE LOIZATE VW TREND 1:42.629 2,304
32 52 DANIEL LESTARD TOYOTA ETIOS 1:42.878 2,553
33 41 JUAN JOSE CONDE FIESTA KINETIC 1:43.349 3,024
34 114 ESTEBAN CASAIS RENAULT CLIO 1:43.535 3,210
35 111 YAIR ETCHEVESTE RENAULT CLIO 1:43.641 3,316
36 77 ELIAS BATTINI TOYOTA ETIOS 1:44.767 4,442
37 58 MAXIMO DONZINO RENAULT CLIO 1:45.142 4,817
38 44 JUAN GARAVAGLIA CHEVROLET ONIX 1:45.219 4,894
39 88 JORGE POSSIEL NISSAN MARCH 1:45.416 5,091
40 33 PABLO MALIZIA TOYOTA ETIOS 1:46.260 5,935
41 99 LUCIANO VIANA TOYOTA ETIOS 2:02.549 22,224
42 116 ANDRES D'AMICO RENAULT CLIO 2:30.657 50,332
43 78 RAMIRO ALCAINE RENAULT CLIO 5:22.979 3:42.654
44 16 NICOLAS BULICH TOYOTA ETIOS 5:46.670 4:06.345

SIN TIEMPO AUTOS Nro. 31, 57 Y 68.

Pos Auto Piloto Marca Tiempo Dif.
1 18 RENZO CERRETTI FIESTA KINETIC 1:40.889
2 8 JUAN MANUEL DAMIANI TOYOTA ETIOS 1:40.954 0.065
3 1 PABLO VUYOVICH FIESTA KINETIC 1:41.248 0.359
4 19 JUAN BENEDETTI TOYOTA ETIOS 1:41.330 0.441
5 37 PABLO COLLAZO FIESTA KINETIC 1:41.336 0.447
6 9 TOMAS SNIECHOWSKI FIESTA KINETIC 1:41.342 0.453
7 17 LUCAS PETRACCHINI RENAULT CLIO 1:41.377 0.488
8 11 ALFREDO LESTARD RENAULT CLIO 1:41.420 0.531
9 38 LUCAS BARBALARGA RENAULT CLIO 1:41.435 0.546
10 4 LUIGI MELLI TOYOTA ETIOS 1:41.486 0.597
11 25 LUCAS ROSSOMANNO FIESTA KINETIC 1:41.637 0.748
12 15 MARTIN BLASIG TOYOTA ETIOS 1:41.671 0.782
13 22 JUAN PABLO URRUTIA FIESTA KINETIC 1:41.695 0.806
14 116 ANDRES D'AMICO RENAULT CLIO 1:41.830 0.941
15 70 MATIAS CRAVERO TOYOTA ETIOS 1:41.914 1,025
16 30 FRANCO ROSSOMANNO RENAULT CLIO 1:41.920 1,031
17 78 RAMIRO ALCAINE RENAULT CLIO 1:42.029 1,140
18 77 ELIAS BATTINI TOYOTA ETIOS 1:42.046 1,157
19 113 LUIS BESSONE TOYOTA ETIOS 1:42.098 1,209
20 27 CRISTOBAL RIESTRA FIESTA KIENTIC 1:42.104 1,215
21 71 YAMIL APUD TOYOTA ETIOS 1:42.220 1,331
22 114 ESTEBAN CASAIS RENAULT CLIO 1:42.233 1,344
23 93 MARTIN BADARACO NISSAN MARCH 1:42.292 1,403
24 33 PABLO MALIZIA TOYOTA ETIOS 1:42.298 1,409
25 118 WALTER BESSONE TOYOTA ETIOS 1:42.319 1,430
26 12 SANTIAGO ROBLEDO TOYOTA ETIOS 1:42.349 1,460
27 69 AGUSTIN HERRERA RENAULT CLIO 1:42.366 1,477
28 87 MARCELO MARCHESSE TOYOTA ETIOS 1:42.423 1,534
29 88 JORGE POSSIEL NISSAN MARCH 1:42.472 1,583
30 31 JONATHAN BALDINELLI TOYOTA ETIOS 1:42.476 1,587
31 75 JORGE LOIZATE VW TREND 1:42.605 1,716
32 41 JUAN JOSE CONDE FIESTA KINETIC 1:42.788 1,899
33 40 MARCELO GARCIA RENAULT CLIO 1:42.861 1,972
34 52 DANIEL LESTARD TOYOTA ETIOS 1:43.068 2,179
35 91 EMILIANO URQUIZA TOYOTA ETIOS 1:43.188 2,299
36 57 PABLO M. GRIPPO TOYOTA ETIOS 1:43.222 2,333
37 35 MARTIN FIERROS TOYOTA ETIOS 1:43.368 2,479
38 99 LUCIANO VIANA TOYOTA ETIOS 1:43.469 2,580
39 95 PABLO MELILLO TOYOTA ETIOS 1:43.482 2,593
40 111 YAIR ETCHEVESTE RENAULT CLIO 1:43.564 2,675
41 20 RUBEN LOIACONO TOYOTA ETIOS 1:43.639 2,750
42 36 EDUARDO MORENO TOYOTA ETIOS 1:44.421 3,532
43 68 CRISTIAN GARVIGLIA FIESTA KINETIC 1:44.572 3,683
44 16 NICOLAS BULICH TOYOTA ETIOS 1:44.793 3,904
45 3 FRANCISCO COLTRINARI TOYOTA EIOS 1:44.899 4,010
46 58 MAXIMO DONZINO RENAULT CLIO 1:44.971 4,082
47 44 JUAN GARAVAGLIA CHEVROLET ONIX 1:45.491 4,602

Pos Auto Piloto Marca Tiempo Dif.
1 18 RENZO CERRETTI FIESTA KINETIC 1:40.889
2 8 JUAN MANUEL DAMIANI TOYOTA ETIOS 1:40.954 0.065
3 1 PABLO VUYOVICH FIESTA KINETIC 1:41.248 0.359
4 19 JUAN BENEDETTI TOYOTA ETIOS 1:41.330 0.441
5 37 PABLO COLLAZO FIESTA KINETIC 1:41.336 0.447
6 9 TOMAS SNIECHOWSKI FIESTA KINETIC 1:41.342 0.453
7 17 LUCAS PETRACCHINI RENAULT CLIO 1:41.377 0.488
8 11 ALFREDO LESTARD RENAULT CLIO 1:41.420 0.531
9 38 LUCAS BARBALARGA RENAULT CLIO 1:41.435 0.546
10 4 LUIGI MELLI TOYOTA ETIOS 1:41.486 0.597
11 25 LUCAS ROSSOMANNO FIESTA KINETIC 1:41.637 0.748
12 15 MARTIN BLASIG TOYOTA ETIOS 1:41.671 0.782
13 22 JUAN PABLO URRUTIA FIESTA KINETIC 1:41.695 0.806
14 116 ANDRES D'AMICO RENAULT CLIO 1:41.830 0.941
15 70 MATIAS CRAVERO TOYOTA ETIOS 1:41.914 1,025
16 30 FRANCO ROSSOMANNO RENAULT CLIO 1:41.920 1,031
17 78 RAMIRO ALCAINE RENAULT CLIO 1:42.029 1,140
18 77 ELIAS BATTINI TOYOTA ETIOS 1:42.046 1,157
19 113 LUIS BESSONE TOYOTA ETIOS 1:42.098 1,209
20 27 CRISTOBAL RIESTRA FIESTA KIENTIC 1:42.104 1,215
21 71 YAMIL APUD TOYOTA ETIOS 1:42.220 1,331
22 114 ESTEBAN CASAIS RENAULT CLIO 1:42.233 1,344
23 93 MARTIN BADARACO NISSAN MARCH 1:42.292 1,403
24 33 PABLO MALIZIA TOYOTA ETIOS 1:42.298 1,409
25 118 WALTER BESSONE TOYOTA ETIOS 1:42.319 1,430
26 12 SANTIAGO ROBLEDO TOYOTA ETIOS 1:42.349 1,460
27 69 AGUSTIN HERRERA RENAULT CLIO 1:42.366 1,477
28 88 JORGE POSSIEL NISSAN MARCH 1:42.472 1,583
29 31 JONATHAN BALDINELLI TOYOTA ETIOS 1:42.476 1,587
30 87 MARCELO MARCHESSE TOYOTA ETIOS 1:42.573 1,684
31 75 JORGE LOIZATE VW TREND 1:42.605 1,716
32 41 JUAN JOSE CONDE FIESTA KINETIC 1:42.788 1,899
33 40 MARCELO GARCIA RENAULT CLIO 1:42.861 1,972
34 52 DANIEL LESTARD TOYOTA ETIOS 1:43.068 2,179
35 91 EMILIANO URQUIZA TOYOTA ETIOS 1:43.188 2,299
36 57 PABLO M. GRIPPO TOYOTA ETIOS 1:43.222 2,333
37 35 MARTIN FIERROS TOYOTA ETIOS 1:43.368 2,479
38 99 LUCIANO VIANA TOYOTA ETIOS 1:43.469 2,580
39 95 PABLO MELILLO TOYOTA ETIOS 1:43.482 2,593
40 111 YAIR ETCHEVESTE RENAULT CLIO 1:43.564 2,675
41 20 RUBEN LOIACONO TOYOTA ETIOS 1:43.639 2,750
42 16 NICOLAS BULICH TOYOTA ETIOS 1:44.793 3,904
43 44 JUAN GARAVAGLIA CHEVROLET ONIX 1:45.491 4,602
44 36 EDUARDO MORENO TOYOTA ETIOS 1:46.724 5,835
45 58 MAXIMO DONZINO RENAULT CLIO 1:47.375 6,486

SIN TIEMPO AUTOS Nro. 3 Y 68.

Pos Auto Piloto Marca Tiempo Dif.
1 4 LUIGI MELLI TOYOTA ETIOS 1:41.958
2 18 RENZO CERRETTI FIESTA KINETIC 1:42.104 0.146
3 19 JUAN BENEDETTI TOYOTA ETIOS 1:42.145 0.187
4 37 PABLO COLLAZO FIESTA KINETIC 1:42.219 0.261
5 77 ELIAS BATTINI TOYOTA ETIOS 1:42.221 0.263
6 8 JUAN MANUEL DAMIANI TOYOTA ETIOS 1:42.312 0.354
7 12 SANTIAGO ROBLEDO TOYOTA ETIOS 1:42.358 0.400
8 15 MARTIN BLASIG TOYOTA ETIOS 1:42.401 0.443
9 87 MARCELO MARCHESSE TOYOTA ETIOS 1:42.423 0.465
10 1 PABLO VUYOVICH FIESTA KINETIC 1:42.449 0.491
11 38 LUCAS BARBALARGA RENAULT CLIO 1:42.589 0.631
12 9 TOMAS SNIECHOWSKI FIESTA KINETIC 1:42.612 0.654
13 116 ANDRES D'AMICO RENAULT CLIO 1:42.699 0.741
14 27 CRISTOBAL RIESTRA FIESTA KIENTIC 1:42.716 0.758
15 33 PABLO MALIZIA TOYOTA ETIOS 1:42.864 0.906
16 25 LUCAS ROSSOMANNO FIESTA KINETIC 1:42.954 0.996
17 70 MATIAS CRAVERO TOYOTA ETIOS 1:42.982 1,024
18 78 RAMIRO ALCAINE RENAULT CLIO 1:43.044 1,086
19 40 MARCELO GARCIA RENAULT CLIO 1:43.070 1,112
20 91 EMILIANO URQUIZA TOYOTA ETIOS 1:43.231 1,273
21 93 MARTIN BADARACO NISSAN MARCH 1:43.234 1,276
22 113 LUIS BESSONE TOYOTA ETIOS 1:43.260 1,302
23 11 ALFREDO LESTARD RENAULT CLIO 1:43.273 1,315
24 118 WALTER BESSONE TOYOTA ETIOS 1:43.524 1,566
25 30 FRANCO ROSSOMANNO RENAULT CLIO 1:43.605 1,647
26 88 JORGE POSSIEL NISSAN MARCH 1:43.676 1,718
27 114 ESTEBAN CASAIS RENAULT CLIO 1:43.981 2,023
28 31 JONATHAN BALDINELLI TOYOTA ETIOS 1:44.024 2,066
29 57 PABLO M. GRIPPO TOYOTA ETIOS 1:44.259 2,301
30 75 JORGE LOIZATE VW TREND 1:44.282 2,324
31 41 JUAN JOSE CONDE FIESTA KINETIC 1:44.390 2,432
32 36 EDUARDO MORENO TOYOTA ETIOS 1:44.421 2,463
33 111 YAIR ETCHEVESTE RENAULT CLIO 1:44.435 2,477
34 68 CRISTIAN GARVIGLIA FIESTA KINETIC 1:44.572 2,614
35 17 LUCAS PETRACCHINI RENAULT CLIO 1:44.591 2,633
36 35 MARTIN FIERROS TOYOTA ETIOS 1:44.716 2,758
37 3 FRANCISCO COLTRINARI TOYOTA EIOS 1:44.899 2,941
38 58 MAXIMO DONZINO RENAULT CLIO 1:44.971 3,013
39 52 DANIEL LESTARD TOYOTA ETIOS 1:45.502 3,544
40 20 RUBEN LOIACONO TOYOTA ETIOS 1:45.509 3,551
41 95 PABLO MELILLO TOYOTA ETIOS 1:45.562 3,604
42 99 LUCIANO VIANA TOYOTA ETIOS 1:46.565 4,607
43 44 JUAN GARAVAGLIA CHEVROLET ONIX 1:47.236 5,278
44 16 NICOLAS BULICH TOYOTA ETIOS 1:51.312 9,354

SIN TIEMPO AUTOS Nro. 22, 69 Y 71.